DMSP 5D-2 F11 DEB, 35534

Orbit data source: Space-Track

DMSP 5D-2 F11 DEB, 35534 is space debris in SSO originally from a launch on Thu, 28 Nov 1991 UTC launched from the Air Force Western Test Range (AFWTR). Debris objects in space refer to the collection of defunct objects orbiting the Earth. Examples of debris include non-operational satellites, rocket bodies, and fragments generated from explosions, collisions, or faulty payload assembly.

Loading next visibility...
Identifier
35534, 1991-082CQ
Orbit
SSO
Country
Flag of USUS
Related business
Manufacturer
Unknown
Mission
Spacecraft
Bus & Motor
Unknown
Mass
Unknown
Launch date (UTC)
1991-11-28 (34 years ago)
Launch vehicle
Unknown
Launch site
Air Force Western Test Range (AFWTR)
Object type
Payload
Rocket body
Debris
Shape & HBR
Unknown shape, 0.1 m
Radar Cross Section
Small (<0.1 m²)

Expand to show TLE details & history
Last TLE update: 11 hours ago

TLE from 11 hours ago
0 DMSP 5D-2 F11 DEB
1 35534U 91082CQ  25349.70645234  .00016739  00000-0  25042-2 0  9995
2 35534  98.8147  66.5006 0027988 219.7076 293.9506 14.74515497732629
Epoch: 2025-12-15T16:57Z
TLE epoch observation values (Epoch: 2025-12-15T16:57:17.482Z)
Latitude
26.33326°
Longitude
-88.04536°
Altitude
642.008 km
Speed
7.544 km/s
True Right ascension
16h 43m 30s
True Declination
26° 11' 40"
Sunlit
Object was in daylight at epoch
Visualization orbit readout
Latitude
Unknown
Longitude
Unknown
Altitude
Unknown
Speed
Unknown
Apparent Right ascension
Unknown
Apparent Declination
Unknown
Sunlit
N/A
Visualization observer readout
Local Sidereal Time
03:06:11
Azimuth
Unknown
Elevation
Unknown
Doppler factor
Unknown
Orbital elements
Apogee altitude
663.434 km
Perigee altitude
624.128 km
Semi-major axis
7,021.918 km
Eccentricity
0.0028
Inclination
98.8147°
RAAN
66.5006°
Arg. of periapsis
219.7076°
True anomaly
293.65708°
Mean anomaly
293.9506°
Eccentric anomaly
293.80388°
Mean motion
3.68858 °/min
Orbital period
97.6 mins
BSTAR
0.0025042
Loading maneuver chart data...
Computing Atmospheric mass density...

Documentation

Showing up to 5 results
|